{"data":{"norad_id":68025,"epoch":"2026-09-20T02:02:53.619648Z","epoch_age_seconds":95400,"freshness":"FRESH","line1":"1 68025U 26040L   26263.08534282  .00019038  00000+0  59037-3 0  9991","line2":"2 68025  97.2842 210.4188 0001703  95.5252 264.6185 15.33453393 31250","mean_motion":15.33453393,"eccentricity":0.0001703,"inclination_deg":97.2842,"raan_deg":210.4188,"arg_perigee_deg":95.5252,"mean_anomaly_deg":264.6185,"bstar":0.00059037,"rev_number":3125,"period_min":93.905690683095,"perigee_km":464.35272844795,"apogee_km":466.68367741006,"semimajor_km":6843.655202929,"source":"CELESTRAK","updated_at":"2026-09-20T09:00:43.743535Z"}}